Time,TemperatureF,DewpointF,PressureIn,WindDirection,WindDirectionDegrees,WindSpeedMPH,WindSpeedGustMPH,Humidity,HourlyPrecipIn,Conditions,Clouds,dailyrainin,SoftwareType,DateUTC
2013-01-24 00:01:00,25.2,12.4,30.00,NW,315,0.0,0.0,58,0.00,CLR,,0.00,WeatherDisplay:10.37,2013-01-24 05:01:00,
2013-01-24 00:02:00,25.2,12.4,30.00,NW,315,0.0,0.0,58,0.00,CLR,,0.00,WeatherDisplay:10.37,2013-01-24 05:02:00,
2013-01-24 00:03:00,25.2,12.4,30.00,NW,315,0.0,0.0,58,0.00,CLR,,0.00,WeatherDisplay:10.37,2013-01-24 05:03:00,
2013-01-24 00:08:00,25.2,12.4,30.00,NW,315,0.0,0.0,58,0.00,CLR,,0.00,WeatherDisplay:10.37,2013-01-24 05:08:00,
2013-01-24 00:13:00,25.2,12.8,30.00,NW,315,0.0,0.0,59,0.00,CLR,,0.00,WeatherDisplay:10.37,2013-01-24 05:13:00,
2013-01-24 00:18:00,25.2,12.8,30.00,NW,315,0.0,0.0,59,0.00,CLR,,0.00,WeatherDisplay:10.37,2013-01-24 05:18:00,
2013-01-24 00:23:00,25.0,12.7,30.00,NW,315,0.0,0.0,59,0.00,CLR,,0.00,WeatherDisplay:10.37,2013-01-24 05:23:00,
2013-01-24 00:28:00,25.2,13.2,30.00,NW,315,0.0,0.0,60,0.00,CLR,,0.00,WeatherDisplay:10.37,2013-01-24 05:28:00,
2013-01-24 00:33:00,25.2,13.2,30.00,NW,315,0.0,0.0,60,0.00,CLR,,0.00,WeatherDisplay:10.37,2013-01-24 05:33:00,
2013-01-24 00:38:00,25.0,13.0,30.00,NW,315,0.0,0.0,60,0.00,CLR,,0.00,WeatherDisplay:10.37,2013-01-24 05:38:00,
2013-01-24 00:43:00,25.2,13.2,30.00,NW,315,0.0,0.0,60,0.00,CLR,,0.00,WeatherDisplay:10.37,2013-01-24 05:43:00,
2013-01-24 00:48:00,25.0,13.0,30.00,NW,315,0.0,0.0,60,0.00,CLR,,0.00,WeatherDisplay:10.37,2013-01-24 05:48:00,
2013-01-24 00:53:00,25.0,13.4,30.00,NW,315,0.0,0.0,61,0.00,CLR,,0.00,WeatherDisplay:10.37,2013-01-24 05:53:00,
2013-01-24 00:58:00,25.0,13.8,30.00,NW,315,0.0,0.0,62,0.00,CLR,,0.00,WeatherDisplay:10.37,2013-01-24 05:58:00,
2013-01-24 01:03:00,25.0,13.8,30.00,NW,315,0.0,0.0,62,0.00,CLR,,0.00,WeatherDisplay:10.37,2013-01-24 06:03:00,
2013-01-24 01:08:00,24.8,13.6,30.00,NW,315,0.0,0.0,62,0.00,CLR,,0.00,WeatherDisplay:10.37,2013-01-24 06:08:00,
2013-01-24 01:13:00,24.8,13.6,29.97,NW,315,0.0,0.0,62,0.00,CLR,,0.00,WeatherDisplay:10.37,2013-01-24 06:13:00,
2013-01-24 01:18:00,24.6,13.4,29.97,NW,315,0.0,0.0,62,0.00,CLR,,0.00,WeatherDisplay:10.37,2013-01-24 06:18:00,
2013-01-24 01:23:00,24.8,13.6,29.97,NW,315,0.0,0.0,62,0.00,CLR,,0.00,WeatherDisplay:10.37,2013-01-24 06:23:00,
2013-01-24 01:28:00,24.8,13.6,29.97,NW,315,0.0,0.0,62,0.00,CLR,,0.00,WeatherDisplay:10.37,2013-01-24 06:28:00,
2013-01-24 01:33:00,24.8,13.6,29.97,NW,315,0.0,0.0,62,0.00,CLR,,0.00,WeatherDisplay:10.37,2013-01-24 06:33:00,
2013-01-24 01:38:00,24.8,13.2,29.97,NW,315,0.0,0.0,61,0.00,CLR,,0.00,WeatherDisplay:10.37,2013-01-24 06:38:00,
2013-01-24 01:43:00,24.6,13.4,29.97,NW,315,0.0,0.0,62,0.00,CLR,,0.00,WeatherDisplay:10.37,2013-01-24 06:43:00,
2013-01-24 01:48:00,24.6,13.4,29.97,NW,315,0.0,0.0,62,0.00,CLR,,0.00,WeatherDisplay:10.37,2013-01-24 06:48:00,
2013-01-24 01:53:00,24.6,13.4,29.97,NW,315,0.0,0.0,62,0.00,CLR,,0.00,WeatherDisplay:10.37,2013-01-24 06:53:00,
2013-01-24 01:58:00,24.6,13.4,29.97,NW,315,0.0,0.0,62,0.00,CLR,,0.00,WeatherDisplay:10.37,2013-01-24 06:58:00,
2013-01-24 02:03:00,24.4,13.3,29.97,NW,315,0.0,0.0,62,0.00,CLR,,0.00,WeatherDisplay:10.37,2013-01-24 07:03:00,
2013-01-24 02:08:00,24.3,13.1,29.97,NW,315,0.0,0.0,62,0.00,CLR,,0.00,WeatherDisplay:10.37,2013-01-24 07:08:00,
2013-01-24 02:13:00,24.4,13.3,29.97,NW,315,0.0,0.0,62,0.00,CLR,,0.00,WeatherDisplay:10.37,2013-01-24 07:13:00,
2013-01-24 02:18:00,24.4,13.6,29.97,NW,315,0.0,0.0,63,0.00,CLR,,0.00,WeatherDisplay:10.37,2013-01-24 07:18:00,
2013-01-24 02:23:00,24.4,13.6,29.97,NW,315,0.0,0.0,63,0.00,CLR,,0.00,WeatherDisplay:10.37,2013-01-24 07:23:00,
2013-01-24 02:28:00,24.4,14.0,29.97,NW,315,0.0,0.0,64,0.00,CLR,,0.00,WeatherDisplay:10.37,2013-01-24 07:28:00,
2013-01-24 02:33:00,24.3,14.2,29.97,NW,315,0.0,0.0,65,0.00,CLR,,0.00,WeatherDisplay:10.37,2013-01-24 07:33:00,
2013-01-24 02:38:00,24.3,14.2,29.97,NW,315,0.0,0.0,65,0.00,CLR,,0.00,WeatherDisplay:10.37,2013-01-24 07:38:00,
2013-01-24 02:43:00,24.4,14.4,29.97,NW,315,0.0,0.0,65,0.00,CLR,,0.00,WeatherDisplay:10.37,2013-01-24 07:43:00,
2013-01-24 02:48:00,24.4,14.4,29.97,NW,315,0.0,0.0,65,0.00,CLR,,0.00,WeatherDisplay:10.37,2013-01-24 07:48:00,
2013-01-24 02:53:00,24.4,14.4,29.97,NW,315,0.0,0.0,65,0.00,CLR,,0.00,WeatherDisplay:10.37,2013-01-24 07:53:00,
2013-01-24 02:58:00,24.6,14.5,29.94,NW,315,0.0,0.0,65,0.00,CLR,,0.00,WeatherDisplay:10.37,2013-01-24 07:58:00,
2013-01-24 03:03:00,24.8,14.7,29.94,NW,315,0.0,0.0,65,0.00,CLR,,0.00,WeatherDisplay:10.37,2013-01-24 08:03:00,
2013-01-24 03:08:00,25.2,15.0,29.94,NW,315,0.0,0.0,65,0.00,CLR,,0.00,WeatherDisplay:10.37,2013-01-24 08:08:00,
2013-01-24 03:13:00,25.3,15.2,29.94,NW,315,0.0,0.0,65,0.00,CLR,,0.00,WeatherDisplay:10.37,2013-01-24 08:13:00,
2013-01-24 03:18:00,25.7,15.9,29.94,NW,315,0.0,0.0,66,0.00,CLR,,0.00,WeatherDisplay:10.37,2013-01-24 08:18:00,
2013-01-24 03:23:00,25.7,15.9,29.94,NW,315,0.0,0.0,66,0.00,CLR,,0.00,WeatherDisplay:10.37,2013-01-24 08:23:00,
2013-01-24 03:28:00,25.9,16.1,29.94,NW,315,0.0,0.0,66,0.00,CLR,,0.00,WeatherDisplay:10.37,2013-01-24 08:28:00,
2013-01-24 03:33:00,26.1,16.2,29.94,NW,315,0.0,0.0,66,0.00,CLR,,0.00,WeatherDisplay:10.37,2013-01-24 08:33:00,
2013-01-24 03:38:00,26.2,16.4,29.94,NW,315,0.0,0.0,66,0.00,CLR,,0.00,WeatherDisplay:10.37,2013-01-24 08:38:00,
2013-01-24 03:43:00,26.2,16.4,29.94,NW,315,0.0,0.0,66,0.00,CLR,,0.00,WeatherDisplay:10.37,2013-01-24 08:43:00,
2013-01-24 03:48:00,26.1,16.2,29.94,NW,315,0.0,0.0,66,0.00,CLR,,0.00,WeatherDisplay:10.37,2013-01-24 08:48:00,
2013-01-24 03:53:00,26.2,16.4,29.94,NW,315,0.0,0.0,66,0.00,CLR,,0.00,WeatherDisplay:10.37,2013-01-24 08:53:00,
2013-01-24 03:58:00,26.2,16.1,29.94,NW,315,0.0,0.0,65,0.00,CLR,,0.00,WeatherDisplay:10.37,2013-01-24 08:58:00,
2013-01-24 04:03:00,26.4,16.2,29.94,NW,315,0.0,0.0,65,0.00,CLR,,0.00,WeatherDisplay:10.37,2013-01-24 09:03:00,
2013-01-24 04:08:00,26.6,16.1,29.94,NW,315,0.0,0.0,64,0.00,CLR,,0.00,WeatherDisplay:10.37,2013-01-24 09:08:00,
2013-01-24 04:13:00,26.8,15.5,29.94,NW,315,0.0,0.0,62,0.00,CLR,,0.00,WeatherDisplay:10.37,2013-01-24 09:13:00,
2013-01-24 04:18:00,27.0,15.7,29.94,NW,315,0.0,0.0,62,0.00,CLR,,0.00,WeatherDisplay:10.37,2013-01-24 09:18:00,
2013-01-24 04:23:00,27.0,15.7,29.94,NW,315,0.0,0.0,62,0.00,CLR,,0.00,WeatherDisplay:10.37,2013-01-24 09:23:00,
2013-01-24 04:28:00,27.3,15.6,29.94,NW,315,0.0,0.0,61,0.00,CLR,,0.00,WeatherDisplay:10.37,2013-01-24 09:28:00,
2013-01-24 04:33:00,27.7,16.0,29.94,NW,315,0.0,0.0,61,0.00,CLR,,0.00,WeatherDisplay:10.37,2013-01-24 09:33:00,
2013-01-24 04:38:00,27.7,16.0,29.94,NW,315,0.0,0.0,61,0.00,CLR,,0.00,WeatherDisplay:10.37,2013-01-24 09:38:00,
2013-01-24 04:43:00,27.9,16.1,29.94,NW,315,0.0,0.0,61,0.00,CLR,,0.00,WeatherDisplay:10.37,2013-01-24 09:43:00,
2013-01-24 04:48:00,28.0,16.3,29.94,NW,315,0.0,0.0,61,0.00,CLR,,0.00,WeatherDisplay:10.37,2013-01-24 09:48:00,
2013-01-24 04:53:00,28.2,16.5,29.94,NW,315,0.0,0.0,61,0.00,CLR,,0.00,WeatherDisplay:10.37,2013-01-24 09:53:00,
2013-01-24 04:58:00,28.2,16.5,29.94,NW,315,0.0,0.0,61,0.00,CLR,,0.00,WeatherDisplay:10.37,2013-01-24 09:58:00,
2013-01-24 05:03:00,28.4,16.7,29.94,NW,315,0.0,0.0,61,0.00,CLR,,0.00,WeatherDisplay:10.37,2013-01-24 10:03:00,
2013-01-24 05:08:00,28.4,16.7,29.94,NW,315,0.0,0.0,61,0.00,CLR,,0.00,WeatherDisplay:10.37,2013-01-24 10:08:00,
2013-01-24 05:13:00,28.4,16.7,29.94,NW,315,0.0,0.0,61,0.00,CLR,,0.00,WeatherDisplay:10.37,2013-01-24 10:13:00,
2013-01-24 05:18:00,28.4,15.9,29.94,NW,315,0.0,0.0,59,0.00,CLR,,0.00,WeatherDisplay:10.37,2013-01-24 10:18:00,
2013-01-24 05:23:00,28.4,15.5,29.94,NW,315,0.0,0.0,58,0.00,CLR,,0.00,WeatherDisplay:10.37,2013-01-24 10:23:00,
2013-01-24 05:28:00,28.4,15.5,29.97,NW,315,0.0,0.0,58,0.00,CLR,,0.00,WeatherDisplay:10.37,2013-01-24 10:28:00,
2013-01-24 05:33:00,28.6,15.3,29.97,NW,315,0.0,0.0,57,0.00,CLR,,0.00,WeatherDisplay:10.37,2013-01-24 10:33:00,
2013-01-24 05:38:00,28.8,15.4,29.97,NW,315,0.0,0.0,57,0.00,CLR,,0.00,WeatherDisplay:10.37,2013-01-24 10:38:00,
2013-01-24 05:43:00,28.9,15.6,29.97,NW,315,0.0,0.0,57,0.00,CLR,,0.00,WeatherDisplay:10.37,2013-01-24 10:43:00,
2013-01-24 05:48:00,29.1,16.2,29.97,NW,315,0.0,0.0,58,0.00,CLR,,0.00,WeatherDisplay:10.37,2013-01-24 10:48:00,
2013-01-24 05:53:00,29.1,15.8,29.97,NW,315,0.0,0.0,57,0.00,CLR,,0.00,WeatherDisplay:10.37,2013-01-24 10:53:00,
2013-01-24 05:58:00,29.1,15.8,30.00,NW,315,0.0,0.0,57,0.00,CLR,,0.00,WeatherDisplay:10.37,2013-01-24 10:58:00,
2013-01-24 06:03:00,29.3,16.3,30.00,NW,315,0.0,0.0,58,0.00,CLR,,0.00,WeatherDisplay:10.37,2013-01-24 11:03:00,
2013-01-24 06:08:00,29.3,16.7,30.00,NW,315,0.0,0.0,59,0.00,CLR,,0.00,WeatherDisplay:10.37,2013-01-24 11:08:00,
2013-01-24 06:13:00,29.1,17.0,30.00,NW,315,0.0,0.0,60,0.00,CLR,,0.00,WeatherDisplay:10.37,2013-01-24 11:13:00,
2013-01-24 06:18:00,29.3,17.5,30.00,NW,315,0.0,0.0,61,0.00,CLR,,0.00,WeatherDisplay:10.37,2013-01-24 11:18:00,
2013-01-24 06:23:00,29.5,18.1,30.00,NW,315,0.0,0.0,62,0.00,CLR,,0.00,WeatherDisplay:10.37,2013-01-24 11:23:00,
2013-01-24 06:28:00,29.5,18.1,30.00,NW,315,0.0,0.0,62,0.00,CLR,,0.00,WeatherDisplay:10.37,2013-01-24 11:28:00,
2013-01-24 06:33:00,29.8,18.4,30.00,NW,315,0.0,0.0,62,0.00,CLR,,0.00,WeatherDisplay:10.37,2013-01-24 11:33:00,
2013-01-24 06:38:00,29.7,18.6,30.00,NW,315,0.0,0.0,63,0.00,CLR,,0.00,WeatherDisplay:10.37,2013-01-24 11:38:00,
2013-01-24 06:43:00,29.7,18.6,30.03,NW,315,0.0,0.0,63,0.00,CLR,,0.00,WeatherDisplay:10.37,2013-01-24 11:43:00,
2013-01-24 06:48:00,29.7,18.6,30.03,NW,315,0.0,0.0,63,0.00,CLR,,0.00,WeatherDisplay:10.37,2013-01-24 11:48:00,
2013-01-24 06:53:00,30.2,18.7,30.03,NW,315,0.0,0.0,62,0.00,CLR,,0.00,WeatherDisplay:10.37,2013-01-24 11:53:00,
2013-01-24 06:58:00,30.0,18.2,30.03,NW,315,0.0,0.0,61,0.00,CLR,,0.00,WeatherDisplay:10.37,2013-01-24 11:58:00,
2013-01-24 07:03:00,30.4,17.4,30.03,NW,315,0.0,0.0,58,0.00,CLR,,0.00,WeatherDisplay:10.37,2013-01-24 12:03:00,
2013-01-24 07:08:00,30.2,17.2,30.03,NW,315,0.0,0.0,58,0.00,CLR,,0.00,WeatherDisplay:10.37,2013-01-24 12:08:00,
2013-01-24 07:13:00,30.2,16.8,30.06,NW,315,0.0,0.0,57,0.00,CLR,,0.00,WeatherDisplay:10.37,2013-01-24 12:13:00,
2013-01-24 07:18:00,30.2,16.4,30.06,NW,315,0.0,0.0,56,0.00,CLR,,0.00,WeatherDisplay:10.37,2013-01-24 12:18:00,
2013-01-24 07:23:00,30.2,16.4,30.06,NW,315,0.0,0.0,56,0.00,CLR,,0.00,WeatherDisplay:10.37,2013-01-24 12:23:00,
2013-01-24 07:28:00,30.6,15.9,30.06,NW,315,0.0,0.0,54,0.00,CLR,,0.00,WeatherDisplay:10.37,2013-01-24 12:28:00,
2013-01-24 07:33:00,30.6,15.0,30.06,NW,315,0.0,0.0,52,0.00,CLR,,0.00,WeatherDisplay:10.37,2013-01-24 12:33:00,
2013-01-24 07:38:00,31.5,14.9,30.06,NW,315,0.0,0.0,50,0.00,CLR,,0.00,WeatherDisplay:10.37,2013-01-24 12:38:00,
2013-01-24 07:43:00,32.0,13.0,30.06,NW,315,0.0,0.0,45,0.00,CLR,,0.00,WeatherDisplay:10.37,2013-01-24 12:43:00,
2013-01-24 07:48:00,31.8,12.4,30.06,NW,315,0.0,0.0,44,0.00,CLR,,0.00,WeatherDisplay:10.37,2013-01-24 12:48:00,
2013-01-24 07:53:00,32.4,11.8,30.06,NW,315,0.0,0.0,42,0.00,CLR,,0.00,WeatherDisplay:10.37,2013-01-24 12:53:00,
2013-01-24 07:58:00,32.4,11.8,30.09,NW,315,0.0,0.0,42,0.00,CLR,,0.00,WeatherDisplay:10.37,2013-01-24 12:58:00,
2013-01-24 08:03:00,32.4,11.8,30.09,NW,315,0.0,0.0,42,0.00,CLR,,0.00,WeatherDisplay:10.37,2013-01-24 13:03:00,
2013-01-24 08:08:00,32.5,11.4,30.09,NW,315,0.0,0.0,41,0.00,CLR,,0.00,WeatherDisplay:10.37,2013-01-24 13:08:00,
2013-01-24 08:13:00,32.4,11.8,30.09,NW,315,0.0,0.0,42,0.00,CLR,,0.00,WeatherDisplay:10.37,2013-01-24 13:13:00,
2013-01-24 08:18:00,32.5,11.4,30.09,NW,315,0.0,0.0,41,0.00,CLR,,0.00,WeatherDisplay:10.37,2013-01-24 13:18:00,
2013-01-24 08:23:00,32.7,11.0,30.09,NW,315,0.0,0.0,40,0.00,CLR,,0.00,WeatherDisplay:10.37,2013-01-24 13:23:00,
2013-01-24 08:28:00,32.7,11.6,30.12,NW,315,0.0,0.0,41,0.00,CLR,,0.00,WeatherDisplay:10.37,2013-01-24 13:28:00,
2013-01-24 08:33:00,32.9,11.2,30.12,NW,315,2.2,0.0,40,0.00,CLR,,0.00,WeatherDisplay:10.37,2013-01-24 13:33:00,
2013-01-24 08:38:00,32.9,11.2,30.12,NW,315,0.0,0.0,40,0.00,CLR,,0.00,WeatherDisplay:10.37,2013-01-24 13:38:00,
2013-01-24 08:43:00,32.9,11.2,30.12,NW,315,0.0,0.0,40,0.00,CLR,,0.00,WeatherDisplay:10.37,2013-01-24 13:43:00,
2013-01-24 08:48:00,32.9,11.2,30.12,NW,315,0.0,0.0,40,0.00,CLR,,0.00,WeatherDisplay:10.37,2013-01-24 13:48:00,
2013-01-24 08:53:00,32.9,10.6,30.12,NW,315,2.3,0.0,39,0.00,CLR,,0.00,WeatherDisplay:10.37,2013-01-24 13:53:00,
2013-01-24 08:58:00,33.1,10.8,30.15,NW,315,0.0,0.0,39,0.00,CLR,,0.00,WeatherDisplay:10.37,2013-01-24 13:58:00,
2013-01-24 09:03:00,33.1,10.8,30.15,NW,315,0.0,0.0,39,0.00,CLR,,0.00,WeatherDisplay:10.37,2013-01-24 14:03:00,
2013-01-24 09:08:00,33.3,10.4,30.15,NW,315,0.0,0.0,38,0.00,CLR,,0.00,WeatherDisplay:10.37,2013-01-24 14:08:00,
2013-01-24 09:13:00,33.4,9.3,30.15,NW,315,0.0,0.0,36,0.00,CLR,,0.00,WeatherDisplay:10.37,2013-01-24 14:13:00,
2013-01-24 09:18:00,33.6,8.8,30.15,NW,315,3.1,0.0,35,0.00,CLR,,0.00,WeatherDisplay:10.37,2013-01-24 14:18:00,
2013-01-24 09:23:00,33.8,9.0,30.15,NW,315,0.0,0.0,35,0.00,CLR,,0.00,WeatherDisplay:10.37,2013-01-24 14:23:00,
2013-01-24 09:28:00,34.5,9.6,30.15,NW,315,5.8,5.8,35,0.00,CLR,,0.00,WeatherDisplay:10.37,2013-01-24 14:28:00,
2013-01-24 09:33:00,34.7,9.1,30.15,NW,315,0.0,0.0,34,0.00,CLR,,0.00,WeatherDisplay:10.37,2013-01-24 14:33:00,
2013-01-24 09:38:00,34.9,8.6,30.15,NW,315,0.0,0.0,33,0.00,CLR,,0.00,WeatherDisplay:10.37,2013-01-24 14:38:00,
2013-01-24 09:43:00,35.2,8.3,30.18,NW,315,0.0,0.0,32,0.00,CLR,,0.00,WeatherDisplay:10.37,2013-01-24 14:43:00,
2013-01-24 09:48:00,35.8,8.8,30.18,NW,315,0.0,0.0,32,0.00,CLR,,0.00,WeatherDisplay:10.37,2013-01-24 14:48:00,
2013-01-24 09:53:00,36.1,9.1,30.18,NW,315,0.0,0.0,32,0.00,CLR,,0.00,WeatherDisplay:10.37,2013-01-24 14:53:00,
2013-01-24 09:58:00,36.7,8.8,30.18,NW,315,0.0,0.0,31,0.00,CLR,,0.00,WeatherDisplay:10.37,2013-01-24 14:58:00,
2013-01-24 10:03:00,36.9,8.3,30.18,NW,315,3.5,3.5,30,0.00,CLR,,0.00,WeatherDisplay:10.37,2013-01-24 15:03:00,
2013-01-24 10:08:00,36.7,8.1,30.18,NW,315,4.6,0.0,30,0.00,CLR,,0.00,WeatherDisplay:10.37,2013-01-24 15:08:00,
2013-01-24 10:13:00,36.7,8.1,30.18,NW,315,2.3,0.0,30,0.00,CLR,,0.00,WeatherDisplay:10.37,2013-01-24 15:13:00,
2013-01-24 10:18:00,37.2,8.6,30.18,NW,315,2.3,0.0,30,0.00,CLR,,0.00,WeatherDisplay:10.37,2013-01-24 15:18:00,
2013-01-24 10:23:00,37.0,8.4,30.18,NW,315,0.0,0.0,30,0.00,CLR,,0.00,WeatherDisplay:10.37,2013-01-24 15:23:00,
2013-01-24 10:29:00,37.0,8.4,30.21,NW,315,2.3,0.0,30,0.00,CLR,,0.00,WeatherDisplay:10.37,2013-01-24 15:29:00,
2013-01-24 10:34:00,36.7,8.1,30.21,NW,315,4.6,4.6,30,0.00,CLR,,0.00,WeatherDisplay:10.37,2013-01-24 15:34:00,
2013-01-24 10:39:00,37.2,8.6,30.21,NW,315,0.0,0.0,30,0.00,CLR,,0.00,WeatherDisplay:10.37,2013-01-24 15:39:00,
2013-01-24 10:44:00,36.9,8.3,30.24,NW,315,4.6,0.0,30,0.00,CLR,,0.00,WeatherDisplay:10.37,2013-01-24 15:44:00,
2013-01-24 10:49:00,37.2,8.6,30.24,NW,315,0.0,0.0,30,0.00,CLR,,0.00,WeatherDisplay:10.37,2013-01-24 15:49:00,
2013-01-24 10:54:00,37.4,8.0,30.24,NW,315,2.3,0.0,29,0.00,CLR,,0.00,WeatherDisplay:10.37,2013-01-24 15:54:00,
2013-01-24 10:59:00,37.0,7.7,30.24,NW,315,0.0,0.0,29,0.00,CLR,,0.00,WeatherDisplay:10.37,2013-01-24 15:59:00,
2013-01-24 11:04:00,37.0,7.7,30.24,NW,315,0.0,0.0,29,0.00,CLR,,0.00,WeatherDisplay:10.37,2013-01-24 16:04:00,
2013-01-24 11:09:00,37.2,7.8,30.24,NW,315,0.0,0.0,29,0.00,CLR,,0.00,WeatherDisplay:10.37,2013-01-24 16:09:00,
2013-01-24 11:14:00,37.4,8.0,30.24,NW,315,0.0,0.0,29,0.00,CLR,,0.00,WeatherDisplay:10.37,2013-01-24 16:14:00,
2013-01-24 11:19:00,37.0,7.7,30.24,NW,315,2.3,0.0,29,0.00,CLR,,0.00,WeatherDisplay:10.37,2013-01-24 16:19:00,
2013-01-24 11:24:00,37.2,7.8,30.24,NW,315,2.3,0.0,29,0.00,CLR,,0.00,WeatherDisplay:10.37,2013-01-24 16:24:00,
2013-01-24 11:29:00,36.5,5.6,30.27,NW,315,2.3,0.0,27,0.00,CLR,,0.00,WeatherDisplay:10.37,2013-01-24 16:29:00,
2013-01-24 11:34:00,36.1,5.3,30.27,NW,315,3.6,0.0,27,0.00,CLR,,0.00,WeatherDisplay:10.37,2013-01-24 16:34:00,
2013-01-24 11:39:00,36.3,5.5,30.27,NW,315,0.0,0.0,27,0.00,CLR,,0.00,WeatherDisplay:10.37,2013-01-24 16:39:00,
2013-01-24 11:44:00,36.9,5.9,30.27,NW,315,0.0,0.0,27,0.00,CLR,,0.00,WeatherDisplay:10.37,2013-01-24 16:44:00,
2013-01-24 11:49:00,36.1,5.3,30.27,NW,315,5.8,5.8,27,0.00,CLR,,0.00,WeatherDisplay:10.37,2013-01-24 16:49:00,
2013-01-24 11:54:00,35.8,2.4,30.27,NW,315,2.3,0.0,24,0.00,CLR,,0.00,WeatherDisplay:10.37,2013-01-24 16:54:00,
2013-01-24 11:59:00,36.0,2.6,30.27,NW,315,0.0,0.0,24,0.00,CLR,,0.00,WeatherDisplay:10.37,2013-01-24 16:59:00,
2013-01-24 12:04:00,35.8,2.4,30.27,NW,315,4.6,4.6,24,0.00,CLR,,0.00,WeatherDisplay:10.37,2013-01-24 17:04:00,
2013-01-24 12:09:00,36.0,2.6,30.27,NW,315,0.0,0.0,24,0.00,CLR,,0.00,WeatherDisplay:10.37,2013-01-24 17:09:00,
2013-01-24 12:14:00,36.0,2.6,30.27,NW,315,4.6,0.0,24,0.00,CLR,,0.00,WeatherDisplay:10.37,2013-01-24 17:14:00,
2013-01-24 12:19:00,35.8,2.4,30.27,NW,315,2.2,0.0,24,0.00,CLR,,0.00,WeatherDisplay:10.37,2013-01-24 17:19:00,
2013-01-24 12:24:00,36.0,2.6,30.27,NW,315,0.0,0.0,24,0.00,CLR,,0.00,WeatherDisplay:10.37,2013-01-24 17:24:00,
2013-01-24 12:29:00,35.6,2.3,30.27,NW,315,2.3,0.0,24,0.00,CLR,,0.00,WeatherDisplay:10.37,2013-01-24 17:29:00,
2013-01-24 12:34:00,35.6,2.3,30.27,NW,315,0.0,0.0,24,0.00,CLR,,0.00,WeatherDisplay:10.37,2013-01-24 17:34:00,
2013-01-24 12:39:00,35.2,2.9,30.27,NW,315,0.0,0.0,25,0.00,CLR,,0.00,WeatherDisplay:10.37,2013-01-24 17:39:00,
2013-01-24 12:44:00,35.1,2.7,30.30,NW,315,0.0,0.0,25,0.00,CLR,,0.00,WeatherDisplay:10.37,2013-01-24 17:44:00,
2013-01-24 12:49:00,34.9,-0.2,30.30,NW,315,0.0,0.0,22,0.00,CLR,,0.00,WeatherDisplay:10.37,2013-01-24 17:49:00,
2013-01-24 12:54:00,34.7,-0.3,30.30,NW,315,0.0,0.0,22,0.00,CLR,,0.00,WeatherDisplay:10.37,2013-01-24 17:54:00,
2013-01-24 12:59:00,34.9,-0.2,30.30,NW,315,2.6,0.0,22,0.00,CLR,,0.00,WeatherDisplay:10.37,2013-01-24 17:59:00,
2013-01-24 13:04:00,35.4,0.3,30.30,NW,315,2.3,0.0,22,0.00,CLR,,0.00,WeatherDisplay:10.37,2013-01-24 18:04:00,
2013-01-24 13:09:00,35.6,0.4,30.30,NW,315,0.0,0.0,22,0.00,CLR,,0.00,WeatherDisplay:10.37,2013-01-24 18:09:00,
2013-01-24 13:14:00,35.8,0.6,30.30,NW,315,2.3,0.0,22,0.00,CLR,,0.00,WeatherDisplay:10.37,2013-01-24 18:14:00,
2013-01-24 13:19:00,35.1,0.0,30.30,NW,315,6.9,0.0,22,0.00,CLR,,0.00,WeatherDisplay:10.37,2013-01-24 18:19:00,
2013-01-24 13:24:00,34.3,-0.6,30.30,NW,315,4.6,0.0,22,0.00,CLR,,0.00,WeatherDisplay:10.37,2013-01-24 18:24:00,
2013-01-24 13:29:00,34.9,-0.2,30.30,NW,315,8.1,0.0,22,0.00,CLR,,0.00,WeatherDisplay:10.37,2013-01-24 18:29:00,
2013-01-24 13:34:00,35.1,0.0,30.30,NW,315,2.2,0.0,22,0.00,CLR,,0.00,WeatherDisplay:10.37,2013-01-24 18:34:00,
2013-01-24 13:39:00,35.1,0.0,30.30,NW,315,4.6,0.0,22,0.00,CLR,,0.00,WeatherDisplay:10.37,2013-01-24 18:39:00,
2013-01-24 13:44:00,34.9,-0.2,30.33,NW,315,0.0,0.0,22,0.00,CLR,,0.00,WeatherDisplay:10.37,2013-01-24 18:44:00,
2013-01-24 13:49:00,34.7,-0.3,30.33,NW,315,0.0,0.0,22,0.00,CLR,,0.00,WeatherDisplay:10.37,2013-01-24 18:49:00,
2013-01-24 13:54:00,35.4,0.3,30.33,NW,315,0.0,0.0,22,0.00,CLR,,0.00,WeatherDisplay:10.37,2013-01-24 18:54:00,
2013-01-24 13:59:00,34.9,-0.2,30.33,NW,315,3.5,0.0,22,0.00,CLR,,0.00,WeatherDisplay:10.37,2013-01-24 18:59:00,
2013-01-24 14:04:00,35.4,0.3,30.33,NW,315,0.0,0.0,22,0.00,CLR,,0.00,WeatherDisplay:10.37,2013-01-24 19:04:00,
2013-01-24 14:09:00,35.4,0.3,30.33,NW,315,0.0,0.0,22,0.00,CLR,,0.00,WeatherDisplay:10.37,2013-01-24 19:09:00,
2013-01-24 14:14:00,35.8,0.6,30.33,NW,315,0.0,0.0,22,0.00,CLR,,0.00,WeatherDisplay:10.37,2013-01-24 19:14:00,
2013-01-24 14:19:00,35.4,0.3,30.33,NW,315,0.0,0.0,22,0.00,CLR,,0.00,WeatherDisplay:10.37,2013-01-24 19:19:00,
2013-01-24 14:24:00,36.1,0.9,30.33,NW,315,3.1,3.1,22,0.00,CLR,,0.00,WeatherDisplay:10.37,2013-01-24 19:24:00,
2013-01-24 14:29:00,35.4,0.3,30.33,NW,315,0.0,0.0,22,0.00,CLR,,0.00,WeatherDisplay:10.37,2013-01-24 19:29:00,
2013-01-24 14:34:00,35.4,0.3,30.33,NW,315,0.0,0.0,22,0.00,CLR,,0.00,WeatherDisplay:10.37,2013-01-24 19:34:00,
2013-01-24 14:39:00,35.4,0.3,30.33,NW,315,4.6,0.0,22,0.00,CLR,,0.00,WeatherDisplay:10.37,2013-01-24 19:39:00,
2013-01-24 14:44:00,34.7,-0.3,30.33,NW,315,2.3,0.0,22,0.00,CLR,,0.00,WeatherDisplay:10.37,2013-01-24 19:44:00,
2013-01-24 14:49:00,34.5,-0.5,30.33,NW,315,2.3,0.0,22,0.00,CLR,,0.00,WeatherDisplay:10.37,2013-01-24 19:49:00,
2013-01-24 14:54:00,34.5,-0.5,30.33,NW,315,2.3,0.0,22,0.00,CLR,,0.00,WeatherDisplay:10.37,2013-01-24 19:54:00,
2013-01-24 14:59:00,34.5,-0.5,30.33,NW,315,0.0,0.0,22,0.00,CLR,,0.00,WeatherDisplay:10.37,2013-01-24 19:59:00,
2013-01-24 15:04:00,34.9,-0.2,30.33,NW,315,0.0,0.0,22,0.00,CLR,,0.00,WeatherDisplay:10.37,2013-01-24 20:04:00,
2013-01-24 15:09:00,35.1,0.0,30.33,NW,315,0.0,0.0,22,0.00,CLR,,0.00,WeatherDisplay:10.37,2013-01-24 20:09:00,
2013-01-24 15:14:00,34.9,-0.2,30.33,NW,315,0.0,0.0,22,0.00,CLR,,0.00,WeatherDisplay:10.37,2013-01-24 20:14:00,
2013-01-24 15:19:00,34.3,-0.6,30.33,NW,315,0.0,0.0,22,0.00,CLR,,0.00,WeatherDisplay:10.37,2013-01-24 20:19:00,
2013-01-24 15:24:00,34.5,-0.5,30.33,NW,315,0.0,0.0,22,0.00,CLR,,0.00,WeatherDisplay:10.37,2013-01-24 20:24:00,
2013-01-24 15:29:00,34.7,-0.3,30.36,NW,315,0.0,0.0,22,0.00,CLR,,0.00,WeatherDisplay:10.37,2013-01-24 20:29:00,
2013-01-24 15:34:00,34.5,-0.5,30.36,NW,315,0.0,0.0,22,0.00,CLR,,0.00,WeatherDisplay:10.37,2013-01-24 20:34:00,
2013-01-24 15:39:00,34.0,-1.0,30.36,NW,315,0.0,0.0,22,0.00,CLR,,0.00,WeatherDisplay:10.37,2013-01-24 20:39:00,
2013-01-24 15:44:00,33.8,-1.1,30.36,NW,315,0.0,0.0,22,0.00,CLR,,0.00,WeatherDisplay:10.37,2013-01-24 20:44:00,
2013-01-24 15:49:00,33.6,-0.3,30.36,NW,315,0.0,0.0,23,0.00,CLR,,0.00,WeatherDisplay:10.37,2013-01-24 20:49:00,
2013-01-24 15:54:00,33.6,-0.3,30.36,NW,315,0.0,0.0,23,0.00,CLR,,0.00,WeatherDisplay:10.37,2013-01-24 20:54:00,
2013-01-24 15:59:00,33.4,-0.5,30.36,NW,315,0.0,0.0,23,0.00,CLR,,0.00,WeatherDisplay:10.37,2013-01-24 20:59:00,
2013-01-24 16:04:00,33.4,-0.5,30.36,NW,315,0.0,0.0,23,0.00,CLR,,0.00,WeatherDisplay:10.37,2013-01-24 21:04:00,
2013-01-24 16:09:00,33.1,-0.8,30.36,NW,315,0.0,0.0,23,0.00,CLR,,0.00,WeatherDisplay:10.37,2013-01-24 21:09:00,
2013-01-24 16:14:00,33.1,-0.8,30.36,NW,315,0.0,0.0,23,0.00,CLR,,0.00,WeatherDisplay:10.37,2013-01-24 21:14:00,
2013-01-24 16:19:00,32.9,-0.9,30.36,NW,315,3.5,0.0,23,0.00,CLR,,0.00,WeatherDisplay:10.37,2013-01-24 21:19:00,
2013-01-24 16:24:00,32.7,-1.1,30.36,NW,315,0.0,0.0,23,0.00,CLR,,0.00,WeatherDisplay:10.37,2013-01-24 21:24:00,
2013-01-24 16:29:00,32.7,-1.1,30.39,NW,315,0.0,0.0,23,0.00,CLR,,0.00,WeatherDisplay:10.37,2013-01-24 21:29:00,
2013-01-24 16:34:00,32.7,-1.1,30.39,NW,315,0.0,0.0,23,0.00,CLR,,0.00,WeatherDisplay:10.37,2013-01-24 21:34:00,
2013-01-24 16:39:00,32.7,-1.1,30.39,NW,315,0.0,0.0,23,0.00,CLR,,0.00,WeatherDisplay:10.37,2013-01-24 21:39:00,
2013-01-24 16:44:00,32.5,-1.2,30.36,NW,315,0.0,0.0,23,0.00,CLR,,0.00,WeatherDisplay:10.37,2013-01-24 21:44:00,
2013-01-24 16:49:00,32.5,-1.2,30.36,NW,315,0.0,0.0,23,0.00,CLR,,0.00,WeatherDisplay:10.37,2013-01-24 21:49:00,
2013-01-24 16:54:00,32.4,-1.4,30.36,NW,315,3.5,0.0,23,0.00,CLR,,0.00,WeatherDisplay:10.37,2013-01-24 21:54:00,
2013-01-24 16:59:00,32.2,-1.5,30.39,NW,315,0.0,0.0,23,0.00,CLR,,0.00,WeatherDisplay:10.37,2013-01-24 21:59:00,
2013-01-24 17:04:00,32.0,-1.7,30.39,NW,315,0.0,0.0,23,0.00,CLR,,0.00,WeatherDisplay:10.37,2013-01-24 22:04:00,
2013-01-24 17:09:00,31.8,-1.8,30.39,NW,315,0.0,0.0,23,0.00,CLR,,0.00,WeatherDisplay:10.37,2013-01-24 22:09:00,
2013-01-24 17:14:00,31.6,-2.0,30.39,NW,315,0.0,0.0,23,0.00,CLR,,0.00,WeatherDisplay:10.37,2013-01-24 22:14:00,
2013-01-24 17:19:00,31.5,-2.2,30.39,NW,315,0.0,0.0,23,0.00,CLR,,0.00,WeatherDisplay:10.37,2013-01-24 22:19:00,
2013-01-24 17:24:00,31.3,-2.3,30.39,NW,315,0.0,0.0,23,0.00,CLR,,0.00,WeatherDisplay:10.37,2013-01-24 22:24:00,
2013-01-24 17:29:00,31.1,-2.5,30.42,NW,315,0.0,0.0,23,0.00,CLR,,0.00,WeatherDisplay:10.37,2013-01-24 22:29:00,
2013-01-24 17:34:00,30.9,-2.6,30.42,NW,315,0.0,0.0,23,0.00,CLR,,0.00,WeatherDisplay:10.37,2013-01-24 22:34:00,
2013-01-24 17:39:00,30.7,-2.8,30.42,NW,315,0.0,0.0,23,0.00,CLR,,0.00,WeatherDisplay:10.37,2013-01-24 22:39:00,
2013-01-24 17:44:00,30.4,-3.1,30.42,NW,315,0.0,0.0,23,0.00,CLR,,0.00,WeatherDisplay:10.37,2013-01-24 22:44:00,
2013-01-24 17:49:00,30.2,-3.2,30.42,NW,315,0.0,0.0,23,0.00,CLR,,0.00,WeatherDisplay:10.37,2013-01-24 22:49:00,
2013-01-24 17:54:00,30.0,-3.4,30.42,NW,315,0.0,0.0,23,0.00,CLR,,0.00,WeatherDisplay:10.37,2013-01-24 22:54:00,
2013-01-24 17:59:00,29.8,-3.5,30.42,NW,315,0.0,0.0,23,0.00,CLR,,0.00,WeatherDisplay:10.37,2013-01-24 22:59:00,
2013-01-24 18:04:00,29.5,-3.8,30.42,NW,315,0.0,0.0,23,0.00,CLR,,0.00,WeatherDisplay:10.37,2013-01-24 23:04:00,
2013-01-24 18:09:00,29.3,-4.0,30.42,NW,315,0.0,0.0,23,0.00,CLR,,0.00,WeatherDisplay:10.37,2013-01-24 23:09:00,
2013-01-24 18:14:00,29.3,-4.0,30.42,NW,315,2.3,0.0,23,0.00,CLR,,0.00,WeatherDisplay:10.37,2013-01-24 23:14:00,
2013-01-24 18:19:00,29.3,-4.0,30.42,NW,315,0.0,0.0,23,0.00,CLR,,0.00,WeatherDisplay:10.37,2013-01-24 23:19:00,
2013-01-24 18:24:00,29.1,-4.1,30.42,NW,315,0.0,0.0,23,0.00,CLR,,0.00,WeatherDisplay:10.37,2013-01-24 23:24:00,
2013-01-24 18:29:00,28.9,-4.3,30.42,NW,315,0.0,0.0,23,0.00,CLR,,0.00,WeatherDisplay:10.37,2013-01-24 23:29:00,
2013-01-24 18:34:00,28.9,-4.3,30.42,NW,315,0.0,0.0,23,0.00,CLR,,0.00,WeatherDisplay:10.37,2013-01-24 23:34:00,
2013-01-24 18:39:00,28.6,-4.6,30.42,NW,315,0.0,0.0,23,0.00,CLR,,0.00,WeatherDisplay:10.37,2013-01-24 23:39:00,
2013-01-24 18:44:00,28.6,-4.6,30.44,NW,315,0.0,0.0,23,0.00,CLR,,0.00,WeatherDisplay:10.37,2013-01-24 23:44:00,
2013-01-24 18:49:00,28.6,-4.6,30.44,NW,315,0.0,0.0,23,0.00,CLR,,0.00,WeatherDisplay:10.37,2013-01-24 23:49:00,
2013-01-24 18:54:00,28.2,-4.9,30.44,NW,315,0.0,0.0,23,0.00,CLR,,0.00,WeatherDisplay:10.37,2013-01-24 23:54:00,
2013-01-24 18:59:00,28.0,-5.1,30.44,NW,315,0.0,0.0,23,0.00,CLR,,0.00,WeatherDisplay:10.37,2013-01-24 23:59:00,
2013-01-24 19:04:00,27.9,-5.2,30.44,NW,315,0.0,0.0,23,0.00,CLR,,0.00,WeatherDisplay:10.37,2013-01-25 00:04:00,
2013-01-24 19:09:00,28.0,-5.1,30.44,NW,315,0.0,0.0,23,0.00,CLR,,0.00,WeatherDisplay:10.37,2013-01-25 00:09:00,
2013-01-24 19:14:00,27.7,-5.4,30.44,NW,315,0.0,0.0,23,0.00,CLR,,0.00,WeatherDisplay:10.37,2013-01-25 00:14:00,
2013-01-24 19:19:00,27.5,-5.5,30.44,NW,315,0.0,0.0,23,0.00,CLR,,0.00,WeatherDisplay:10.37,2013-01-25 00:19:00,
2013-01-24 19:24:00,27.1,-5.8,30.44,NW,315,0.0,0.0,23,0.00,CLR,,0.00,WeatherDisplay:10.37,2013-01-25 00:24:00,
2013-01-24 19:29:00,27.0,-6.0,30.44,NW,315,0.0,0.0,23,0.00,CLR,,0.00,WeatherDisplay:10.37,2013-01-25 00:29:00,
2013-01-24 19:34:00,27.0,-6.0,30.44,NW,315,0.0,0.0,23,0.00,CLR,,0.00,WeatherDisplay:10.37,2013-01-25 00:34:00,
2013-01-24 19:39:00,26.8,-6.1,30.44,NW,315,0.0,0.0,23,0.00,CLR,,0.00,WeatherDisplay:10.37,2013-01-25 00:39:00,
2013-01-24 19:44:00,26.4,-5.6,30.44,NW,315,0.0,0.0,24,0.00,CLR,,0.00,WeatherDisplay:10.37,2013-01-25 00:44:00,
2013-01-24 19:49:00,26.2,-5.7,30.44,NW,315,0.0,0.0,24,0.00,CLR,,0.00,WeatherDisplay:10.37,2013-01-25 00:49:00,
2013-01-24 19:54:00,26.4,-5.6,30.44,NW,315,0.0,0.0,24,0.00,CLR,,0.00,WeatherDisplay:10.37,2013-01-25 00:54:00,
2013-01-24 19:59:00,26.1,-5.9,30.44,NW,315,0.0,0.0,24,0.00,CLR,,0.00,WeatherDisplay:10.37,2013-01-25 00:59:00,
2013-01-24 20:04:00,25.9,-6.0,30.44,NW,315,0.0,0.0,24,0.00,CLR,,0.00,WeatherDisplay:10.37,2013-01-25 01:04:00,
2013-01-24 20:09:00,25.9,-4.4,30.44,NW,315,0.0,0.0,26,0.00,CLR,,0.00,WeatherDisplay:10.37,2013-01-25 01:09:00,
2013-01-24 20:14:00,25.9,-4.4,30.44,NW,315,0.0,0.0,26,0.00,CLR,,0.00,WeatherDisplay:10.37,2013-01-25 01:14:00,
2013-01-24 20:19:00,25.7,-4.5,30.44,NW,315,0.0,0.0,26,0.00,CLR,,0.00,WeatherDisplay:10.37,2013-01-25 01:19:00,
2013-01-24 20:24:00,25.5,-4.7,30.44,NW,315,0.0,0.0,26,0.00,CLR,,0.00,WeatherDisplay:10.37,2013-01-25 01:24:00,
2013-01-24 20:29:00,25.7,-4.5,30.48,NW,315,0.0,0.0,26,0.00,CLR,,0.00,WeatherDisplay:10.37,2013-01-25 01:29:00,
2013-01-24 20:34:00,25.5,-4.7,30.48,NW,315,0.0,0.0,26,0.00,CLR,,0.00,WeatherDisplay:10.37,2013-01-25 01:34:00,
2013-01-24 20:39:00,25.3,-4.8,30.48,NW,315,0.0,0.0,26,0.00,CLR,,0.00,WeatherDisplay:10.37,2013-01-25 01:39:00,
2013-01-24 20:44:00,25.0,-5.1,30.48,NW,315,0.0,0.0,26,0.00,CLR,,0.00,WeatherDisplay:10.37,2013-01-25 01:44:00,
2013-01-24 20:49:00,25.0,-5.1,30.48,NW,315,0.0,0.0,26,0.00,CLR,,0.00,WeatherDisplay:10.37,2013-01-25 01:49:00,
2013-01-24 20:54:00,25.0,-5.1,30.48,NW,315,0.0,0.0,26,0.00,CLR,,0.00,WeatherDisplay:10.37,2013-01-25 01:54:00,
2013-01-24 20:59:00,24.6,-4.7,30.48,NW,315,0.0,0.0,27,0.00,CLR,,0.00,WeatherDisplay:10.37,2013-01-25 01:59:00,
2013-01-24 21:04:00,24.6,-4.7,30.48,NW,315,0.0,0.0,27,0.00,CLR,,0.00,WeatherDisplay:10.37,2013-01-25 02:04:00,
2013-01-24 21:09:00,24.4,-4.8,30.48,NW,315,0.0,0.0,27,0.00,CLR,,0.00,WeatherDisplay:10.37,2013-01-25 02:09:00,
2013-01-24 21:14:00,24.4,-4.8,30.48,NW,315,0.0,0.0,27,0.00,CLR,,0.00,WeatherDisplay:10.37,2013-01-25 02:14:00,
2013-01-24 21:19:00,24.3,-5.0,30.48,NW,315,0.0,0.0,27,0.00,CLR,,0.00,WeatherDisplay:10.37,2013-01-25 02:19:00,
2013-01-24 21:24:00,24.1,-5.1,30.48,NW,315,0.0,0.0,27,0.00,CLR,,0.00,WeatherDisplay:10.37,2013-01-25 02:24:00,
2013-01-24 21:29:00,24.1,-5.1,30.48,NW,315,0.0,0.0,27,0.00,CLR,,0.00,WeatherDisplay:10.37,2013-01-25 02:29:00,
2013-01-24 21:34:00,24.3,-5.0,30.48,NW,315,0.0,0.0,27,0.00,CLR,,0.00,WeatherDisplay:10.37,2013-01-25 02:34:00,
2013-01-24 21:39:00,24.1,-5.1,30.48,NW,315,0.0,0.0,27,0.00,CLR,,0.00,WeatherDisplay:10.37,2013-01-25 02:39:00,
2013-01-24 21:44:00,24.3,-5.0,30.48,NW,315,0.0,0.0,27,0.00,CLR,,0.00,WeatherDisplay:10.37,2013-01-25 02:44:00,
2013-01-24 21:49:00,24.3,-3.5,30.48,NW,315,0.0,0.0,29,0.00,CLR,,0.00,WeatherDisplay:10.37,2013-01-25 02:49:00,
2013-01-24 21:54:00,24.3,-3.5,30.48,NW,315,0.0,0.0,29,0.00,CLR,,0.00,WeatherDisplay:10.37,2013-01-25 02:54:00,
2013-01-24 21:59:00,24.3,-3.5,30.48,NW,315,0.0,0.0,29,0.00,CLR,,0.00,WeatherDisplay:10.37,2013-01-25 02:59:00,
2013-01-24 22:04:00,24.3,-5.0,30.48,NW,315,0.0,0.0,27,0.00,CLR,,0.00,WeatherDisplay:10.37,2013-01-25 03:04:00,
2013-01-24 22:09:00,24.1,-5.1,30.48,NW,315,0.0,0.0,27,0.00,CLR,,0.00,WeatherDisplay:10.37,2013-01-25 03:09:00,
2013-01-24 22:14:00,24.1,-3.6,30.48,NW,315,0.0,0.0,29,0.00,CLR,,0.00,WeatherDisplay:10.37,2013-01-25 03:14:00,
2013-01-24 22:19:00,23.7,-4.0,30.48,NW,315,0.0,0.0,29,0.00,CLR,,0.00,WeatherDisplay:10.37,2013-01-25 03:19:00,
2013-01-24 22:24:00,23.9,-3.8,30.48,NW,315,0.0,0.0,29,0.00,CLR,,0.00,WeatherDisplay:10.37,2013-01-25 03:24:00,
2013-01-24 22:29:00,23.5,-4.1,30.48,NW,315,0.0,0.0,29,0.00,CLR,,0.00,WeatherDisplay:10.37,2013-01-25 03:29:00,
2013-01-24 22:34:00,23.5,-4.1,30.48,NW,315,0.0,0.0,29,0.00,CLR,,0.00,WeatherDisplay:10.37,2013-01-25 03:34:00,
2013-01-24 22:39:00,23.5,-4.1,30.48,NW,315,0.0,0.0,29,0.00,CLR,,0.00,WeatherDisplay:10.37,2013-01-25 03:39:00,
2013-01-24 22:44:00,23.4,-4.3,30.48,NW,315,0.0,0.0,29,0.00,CLR,,0.00,WeatherDisplay:10.37,2013-01-25 03:44:00,
2013-01-24 22:49:00,23.4,-4.3,30.48,NW,315,0.0,0.0,29,0.00,CLR,,0.00,WeatherDisplay:10.37,2013-01-25 03:49:00,
2013-01-24 22:54:00,23.2,-4.4,30.48,NW,315,0.0,0.0,29,0.00,CLR,,0.00,WeatherDisplay:10.37,2013-01-25 03:54:00,
2013-01-24 22:59:00,23.0,-2.5,30.48,NW,315,0.0,0.0,32,0.00,CLR,,0.00,WeatherDisplay:10.37,2013-01-25 03:59:00,
2013-01-24 23:04:00,23.0,-2.5,30.48,NW,315,0.0,0.0,32,0.00,CLR,,0.00,WeatherDisplay:10.37,2013-01-25 04:04:00,
2013-01-24 23:09:00,22.8,-2.7,30.48,NW,315,0.0,0.0,32,0.00,CLR,,0.00,WeatherDisplay:10.37,2013-01-25 04:09:00,
2013-01-24 23:14:00,22.8,-2.7,30.48,NW,315,0.0,0.0,32,0.00,CLR,,0.00,WeatherDisplay:10.37,2013-01-25 04:14:00,
2013-01-24 23:19:00,22.8,-2.7,30.48,NW,315,0.0,0.0,32,0.00,CLR,,0.00,WeatherDisplay:10.37,2013-01-25 04:19:00,
2013-01-24 23:24:00,22.6,-2.8,30.48,NW,315,0.0,0.0,32,0.00,CLR,,0.00,WeatherDisplay:10.37,2013-01-25 04:24:00,
2013-01-24 23:29:00,22.6,-2.8,30.48,NW,315,0.0,0.0,32,0.00,CLR,,0.00,WeatherDisplay:10.37,2013-01-25 04:29:00,
2013-01-24 23:34:00,22.8,-2.7,30.48,NW,315,0.0,0.0,32,0.00,CLR,,0.00,WeatherDisplay:10.37,2013-01-25 04:34:00,
2013-01-24 23:39:00,22.8,-2.7,30.48,NW,315,0.0,0.0,32,0.00,CLR,,0.00,WeatherDisplay:10.37,2013-01-25 04:39:00,
2013-01-24 23:44:00,22.6,-2.8,30.48,NW,315,0.0,0.0,32,0.00,CLR,,0.00,WeatherDisplay:10.37,2013-01-25 04:44:00,
2013-01-24 23:49:00,22.6,-2.2,30.48,NW,315,0.0,0.0,33,0.00,CLR,,0.00,WeatherDisplay:10.37,2013-01-25 04:49:00,
2013-01-24 23:54:00,22.5,-3.0,30.48,NW,315,0.0,0.0,32,0.00,CLR,,0.00,WeatherDisplay:10.37,2013-01-25 04:54:00,
2013-01-24 23:59:00,22.3,-2.5,30.48,NW,315,0.0,0.0,33,0.00,CLR,,0.00,WeatherDisplay:10.37,2013-01-25 04:59:00,